Weather in Serov

Russia / Voronezh Oblast     50°46′38″N   40°00′19″E
temp.,
°C
wind,
m/s
gust,
m/s
humid.,
%
clouds,
%
prec.,
mm/h
press.,
hPa
HPBL,
m
8 may, sat
sat800:00+8sse3579100 0.0 101798
03:00+7se387824 0.0 1016136
06:00+8sse41076100 0.0 1016261
09:00+13sse7115972 0.0 1014616
12:00+17sse81155100 0.0 10111255
15:00+17s71267100 0.1 1009922
18:00+16sw71371100 0.8 1007782
21:00+12sw51093100 2.1 1008517
9 may, sun
sun900:00+11wsw71093100 4.9 1010569
03:00+7w61087100 6.3 1012696
06:00+6wnw51189100 0.8 1013874
09:00+7nw6983100 1.1 10151017
12:00+8nnw71071100 0.1 10161248
15:00+9nnw71070100 0.1 10181340
18:00+9nnw6106751 0.1 10191276
21:00+7nnw61173100 0.1 1022773
10 may, mon
mon1000:00+4nw4108191 0.0 1022304
03:00+4nnw5137999 0.0 1023464
06:00+5nnw6148048 0.0 1024533
09:00+10n101759100 0.0 10231467
12:00+12n111653100 0.0 10221675
15:00+11nne91556100 0.0 10211568
18:00+10nne91661100 0.1 10211174
21:00+9nne101976100 0.4 1020890
11 may, tue
tue1100:00+9nne101988100 1.5 1019789
03:00+9nne91892100 3.1 1018624
06:00+9nne91695100 1.5 1018507
09:00+9ne71396100 5.1 1020586
12:00+11e81177100 0.4 10211220
15:00+15e7105518 0.5 10221729
18:00+14ese5867100 0.0 1022929
21:00+9ese498363 0.0 1022189
12 may, wed
wed1200:00+7e378598 0.0 1023156
03:00+6ene498895 0.0 1022175
06:00+8e41182100 0.0 1022321
09:00+14e576325 0.0 1022796
12:00+17e465026 0.0 10211952
15:00+19ese454661 0.0 10201951
18:00+18e246199 0.0 1019187
21:00+12ene3692100 0.0 1019106